ASRTU-1 (AO-123)

Last updated on Fri Dec 19 2025 00:03:12 GMT+0000 (Coordinated Universal Time)

1 61781U 24199AY 25352.61637774 .00008965 00000+0 29123-3 0 9993 2 61781 97.3248 218.0022 0013012 232.0136 127.9931 15.32072479106242
UTC large
Height (km)
Speed (km/s)
/
Latitude / Longitude
Inclination (degrees)
Orbital Period (minutes)
Azimuth
Elevation
Range (km)
Doppler Factor

Next 0 passes for location: London (51.5072 / 0.1276)

Sorry there are no passes over London.